EW3803 Weather Reports


time (UTC)temp
C
wind
direction
speed
KPH
gust
KPH
rain 1hr
cm
rain 24hr
cm
rain mn
cm
humidity
%
barometer
mb
20260509233023 16 113 19.3 29.0 0.00 0.61 0.00 81 1010.5
20260509231526 16 148 16.1 27.4 0.00 0.61 0.00 81 1010.5
20260509230028 16 132 19.3 30.6 0.00 0.61 0.00 81 1010.6
20260509224515 16 113 19.3 32.2 0.00 0.61 0.61 80 1010.6
20260509223024 16 114 16.1 25.7 0.00 0.61 0.61 80 1010.7
20260509221533 16 100 19.3 32.2 0.00 0.61 0.61 79 1010.7
20260509220028 16 109 17.7 35.4 0.00 0.61 0.61 81 1010.7
20260509214528 16 123 14.5 27.4 0.00 0.61 0.61 82 1010.7
20260509213020 16 113 19.3 32.2 0.00 0.61 0.61 81 1010.6
20260509211523 16 126 16.1 30.6 0.00 0.61 0.61 82 1010.5
20260509210026 16 98 14.5 30.6 0.00 0.61 0.61 82 1010.4
20260509204528 16 118 19.3 29.0 0.00 0.61 0.61 81 1010.2
20260509203028 16 101 14.5 27.4 0.00 0.61 0.61 82 1010.1
20260509201522 16 134 11.3 27.4 0.00 0.61 0.61 83 1009.9
20260509200024 16 140 12.9 27.4 0.00 0.64 0.61 82 1009.7
20260509194527 16 134 19.3 30.6 0.00 0.66 0.61 81 1009.6
20260509193035 15 110 12.9 22.5 0.03 0.66 0.61 82 1009.3
20260509191519 15 127 11.3 24.1 0.03 0.66 0.61 79 1009.0
20260509190024 15 144 19.3 33.8 0.03 0.66 0.61 82 1008.9
20260509184538 16 132 17.7 32.2 0.03 0.66 0.61 82 1008.7
20260509183028 17 138 19.3 30.6 0.00 0.64 0.56 80 1008.6
20260509181530 17 121 14.5 33.8 0.00 0.64 0.56 78 1008.5
20260509180025 17 129 19.3 32.2 0.00 0.64 0.56 77 1008.5
20260509174526 17 143 14.5 25.7 0.00 0.64 0.56 77 1008.5
20260509173028 18 117 16.1 37.0 0.00 0.64 0.56 73 1008.4
20260509171540 17 134 16.1 41.8 0.00 0.64 0.56 72 1008.3
20260509170020 18 145 19.3 40.2 0.00 0.64 0.56 74 1008.0
20260509164525 18 103 22.5 41.8 0.00 0.64 0.56 74 1007.9
20260509163008 18 135 19.3 37.0 0.00 0.64 0.56 72 1007.8
20260509161512 18 137 19.3 33.8 0.00 0.64 0.56 73 1007.6
20260509160020 18 140 17.7 38.6 0.00 0.64 0.56 73 1007.5
20260509154521 18 139 17.7 30.6 0.00 0.64 0.56 72 1007.4
20260509153030 18 119 17.7 38.6 0.00 0.64 0.56 72 1007.3
20260509151510 18 113 24.1 45.1 0.00 0.64 0.56 72 1007.2
20260509150014 18 150 19.3 40.2 0.00 0.64 0.56 73 1007.1
20260509144520 18 134 19.3 32.2 0.00 0.64 0.56 77 1007.1
20260509143027 18 114 20.9 33.8 0.00 0.64 0.56 78 1007.1
20260509141520 18 122 20.9 33.8 0.00 0.64 0.56 79 1007.1
20260509140016 17 89 24.1 35.4 0.00 0.64 0.56 80 1006.9
20260509134520 17 101 25.7 48.3 0.00 0.64 0.56 81 1006.9
20260509133024 16 90 14.5 40.2 0.00 0.64 0.56 85 1006.7
20260509131524 17 94 25.7 40.2 0.00 0.64 0.56 80 1006.5
20260509130014 17 94 20.9 33.8 0.00 0.61 0.56 80 1006.4
20260509124517 17 119 19.3 38.6 0.00 0.61 0.56 72 1006.4
20260509123021 18 96 22.5 40.2 0.00 0.61 0.56 71 1006.4
20260509121532 18 119 19.3 38.6 0.00 0.61 0.56 72 1006.3
20260509120028 18 124 19.3 37.0 0.00 0.61 0.56 71 1006.2
20260509114513 18 97 17.7 41.8 0.00 0.61 0.56 71 1006.1
20260509113020 18 96 19.3 41.8 0.00 0.61 0.56 71 1006.0
20260509111524 17 129 20.9 37.0 0.00 0.61 0.56 72 1005.9
20260509110007 17 127 16.1 37.0 0.00 0.61 0.56 73 1005.8
20260509104528 17 126 16.1 40.2 0.00 0.61 0.56 75 1005.7
20260509103020 17 96 22.5 38.6 0.00 0.61 0.56 75 1005.6
20260509101522 17 113 22.5 32.2 0.00 0.61 0.56 75 1005.5
20260509100019 16 140 16.1 30.6 0.00 0.61 0.56 78 1005.2
20260509094518 16 135 20.9 40.2 0.00 0.61 0.56 76 1005.1
20260509093016 16 86 16.1 29.0 0.00 0.61 0.56 82 1004.7
20260509091521 15 113 19.3 27.4 0.00 0.61 0.56 84 1004.6
20260509090026 15 121 16.1 30.6 0.00 0.61 0.56 86 1004.4
20260509084514 15 111 22.5 29.0 0.00 0.61 0.56 86 1004.3
20260509083016 15 107 11.3 29.0 0.00 0.61 0.56 89 1004.0
20260509081525 15 107 9.7 24.1 0.00 0.61 0.56 89 1003.7
20260509080023 14 61 8.0 19.3 0.00 0.61 0.56 90 1003.4
20260509074530 13 49 3.2 16.1 0.00 0.61 0.56 91 1003.3
20260509073010 13 61 6.4 11.3 0.00 0.61 0.56 91 1003.2
20260509071519 13 45 6.4 19.3 0.00 0.61 0.56 91 1003.3
20260509070022 12 54 8.0 16.1 0.00 0.61 0.56 91 1003.3
20260509064523 12 55 8.0 16.1 0.00 0.61 0.56 91 1003.2
20260509063025 12 71 8.0 19.3 0.00 0.61 0.56 91 1003.0
20260509061512 12 48 8.0 14.5 0.00 0.61 0.56 91 1002.9
20260509060020 12 53 1.6 17.7 0.00 0.61 0.56 90 1002.8
20260509054524 12 71 1.6 14.5 0.23 0.61 0.56 90 1002.8
20260509053029 12 40 6.4 24.1 0.25 0.61 0.56 91 1002.9
20260509051525 12 64 9.7 25.7 0.33 0.61 0.56 91 1003.3
20260509050022 12 51 14.5 27.4 0.33 0.58 0.53 91 1003.1
20260509044534 12 53 3.2 12.9 0.18 0.36 0.30 90 1003.2
20260509043026 12 57 4.8 20.9 0.25 0.36 0.28 90 1003.2
20260509041527 12 57 14.5 25.7 0.18 0.28 0.20 89 1003.2
20260509040018 13 60 17.7 30.6 0.18 0.25 0.18 88 1003.4
20260509034520 13 46 9.7 19.3 0.08 0.18 0.10 88 1003.4
20260509033027 13 57 12.9 22.5 0.00 0.08 0.03 87 1003.4
20260509031532 13 34 16.1 29.0 0.00 0.08 0.00 87 1003.5
20260509030031 13 56 14.5 24.1 0.00 0.08 0.00 87 1003.5
20260509024520 13 52 12.9 24.1 0.00 0.08 0.00 87 1003.5
20260509023027 13 53 16.1 24.1 0.00 0.08 0.00 87 1003.7
20260509021528 13 50 16.1 32.2 0.00 0.08 0.00 87 1003.8
20260509020011 13 36 16.1 29.0 0.00 0.08 0.00 87 1004.2
20260509014515 13 53 14.5 24.1 0.00 0.08 0.00 87 1004.4
20260509013035 13 44 9.7 20.9 0.00 0.08 0.00 86 1004.8
20260509011508 13 67 12.9 24.1 0.00 0.08 0.00 85 1005.0
20260509010010 13 61 11.3 20.9 0.00 0.05 0.00 83 1005.2
20260509004514 13 47 14.5 20.9 0.00 0.05 0.00 83 1005.4
20260509003022 13 46 14.5 22.5 0.00 0.05 0.00 83 1005.4
20260509001504 13 55 12.9 19.3 0.00 0.05 0.00 81 1005.6
20260509000008 14 52 11.3 24.1 0.00 0.05 0.00 80 1005.9
20260508234511 14 90 8.0 30.6 0.00 0.05 0.00 80 1005.8